Regional Weather Roundup
Issued by NWS

Home | Current Version | Previous Version | Graphics & Text | Print | Product List | Glossary On
Versions: 1 2 3 4 5 6 7 8 9 10 11 12 13 14 15 16 17 18 19 20 21 22 23 24 25 26 27 28 29 30 31 32 33 34 35 36 37 38 39 40 41 42 43 44 45 46 47 48 49 50
000
ASUS43 KLSX 120807
RWRMO

WEATHER SUMMARY FOR MISSOURI
NATIONAL WEATHER SERVICE SPRINGFIELD MO
200 AM CST TUE DEC 12 2017

NOTE: "FAIR" INDICATES FEW OR NO CLOUDS BELOW 12,000 FEET WITH NO
       SIGNIFICANT WEATHER AND/OR OBSTRUCTIONS TO VISIBILITY.
       CURRENT SKY AND/OR WEATHER CONDITIONS ARE NOT AVAILABLE FOR
       CHILLICOTHE AND FARMINGTON.

MOZ001>031-035>038-043-044-053-054-120900-
...NORTHERN AND WESTERN MISSOURI...

CITY           SKY/WX    TMP DP  RH WIND       PRES   REMARKS
KANSAS CTY INT CLEAR     29  22  75 N10       30.29R WCI  20
KANSAS C DTWN  CLEAR     32  22  66 NW9       30.29R WCI  24
LEE`S SUMMIT   CLEAR     30  21  69 N17       30.28R WCI  18
ST JOSEPH      CLEAR     27  19  72 N20       30.33R WCI  13
CHILLICOTHE      N/A     25  16  68 NW10G22   30.28R WCI  15
KIRKSVILLE     CLOUDY    26  18  71 NW20G26   30.22R WCI  12

$$
MOZ066>068-077>081-088>096-101>105-120900-
...SOUTHWEST MISSOURI...

CITY           SKY/WX    TMP DP  RH WIND       PRES   REMARKS
SPRINGFIELD    CLEAR     36  25  64 NW18      30.20R WCI  26
JOPLIN         CLEAR     35  22  58 NW14      30.28R WCI  26
BRANSON        CLOUDY    39  25  56 NW17G26   30.19R

$$
MOZ032>034-039>042-045>050-055>058-069>072-120900-
...CENTRAL MISSOURI...

CITY           SKY/WX    TMP DP  RH WIND       PRES   REMARKS
COLUMBIA       CLOUDY    34  23  64 NW20G29   30.17R WCI  23
JEFFERSON CITY CLOUDY    38  26  62 NW10G23   30.19R
ROLLA          CLOUDY    37  28  70 NW13      30.13R WCI  29
SEDALIA        CLEAR     30  23  75 NW18      30.24R WCI  18
WHITEMAN AFB   CLEAR     29  21  70 N9        30.20R WCI  21
WARRENSBURG    CLEAR     30  21  69 NW13G21   30.26R WCI  20
OSAGE BEACH    CLOUDY    36  24  62 VRB5G18   30.20R

$$
MOZ051-052-059>065-120900-
...EAST CENTRAL MISSOURI...

CITY           SKY/WX    TMP DP  RH WIND       PRES   REMARKS
ST LOUIS INTL  CLOUDY    39  29  67 NW20G33   30.08R WCI  29
SPIRIT OF STL  CLOUDY    40  28  62 NW15G29   30.09R
ST CHARLES     CLOUDY    39  28  64 NW24G33   30.09R WCI  28

$$
MOZ072>076-082>087-097>100-106>115-120900-
...SOUTH CENTRAL AND SOUTHEAST MISSOURI...

CITY           SKY/WX    TMP DP  RH WIND       PRES   REMARKS
CAPE GIRARDEAU CLOUDY    45  32  60 N15G24    30.04R
FARMINGTON     CLOUDY    41  31  67 NW16G23   30.06R
POPLAR BLUFF   CLOUDY    48  33  56 NW14      30.05R
WEST PLAINS    LGT RAIN  42  30  62 NW18G33   30.11R

$$



USA.gov is the U.S. government's official web portal to all federal, state and local government web resources and services.